CSAV Brasilia — A8VK7 — position and weather

sailwx.info

Track history (hours):
 
Tides and Currents Weather Stations Pressure Air Temp Water Temp Dewpoint Dewpoint Depression Visibility Wind Speed Wind Dir Waves Ship Positions

CSAV Brasilia

Last reported at 2014-Dec-19 09:33 UTC. Time now 2014-Dec-21 00:26 UTC.
Position N 50°33' E 000°09'.

Length 294 m; draft 12.3 m.

Type: Cargo ship. MMSI: 636092017.

Date/timePositionNaut miles runAvg speedWind from/ knotsBaromVisibWave heightAir tempDewpointWater temp
2014-Dec-19 09:33N 50°33' E 000°09'1413.9
2014-Dec-19 08:34N 50°37' E 000°30'1313.2
2014-Dec-19 07:34N 50°44' E 000°48'1313.2
2014-Dec-19 06:34N 50°52' E 001°04'1414.2
2014-Dec-19 05:33N 51°01' E 001°21'1515.5
2014-Dec-19 04:34N 51°11' E 001°41'1515.0
2014-Dec-19 03:33N 51°23' E 001°54'1514.5
2014-Dec-19 02:33N 51°35' E 002°09'1414.0
2014-Dec-19 01:33N 51°45' E 002°25'7113.5
2014-Dec-18 20:18N 52°41' E 003°35'1315.0
2014-Dec-18 19:26N 52°51' E 003°49'1315.2
2014-Dec-18 18:33N 53°00' E 004°05'1514.9
2014-Dec-18 17:33N 53°10' E 004°24'1514.5
2014-Dec-18 16:30N 53°24' E 004°34'1213.0
2014-Dec-18 15:33N 53°32' E 004°50'1413.9
2014-Dec-18 14:34N 53°36' E 005°12'1414.2
2014-Dec-18 13:33N 53°41' E 005°34'1515.0
2014-Dec-18 12:33N 53°46' E 005°58'5516.1
2014-Dec-18 09:08N 53°60' E 007°29'915.4
2014-Dec-18 08:33N 54°02' E 007°44'1515.2
2014-Dec-18 07:33N 54°00' E 008°09'1111.4
2014-Dec-18 06:33N 53°59' E 008°28'1212.3
2014-Dec-18 05:33N 53°51' E 008°45'1313.5
2014-Dec-18 04:33N 53°53' E 009°08'1313.4
2014-Dec-18 03:33N 53°44' E 009°26'1413.8
2014-Dec-18 02:33N 53°34' E 009°41'8 8.2
2014-Dec-18 01:33N 53°32' E 009°54'0 0.0
2014-Dec-18 00:33N 53°32' E 009°54'0 0.0
2014-Dec-17 23:33N 53°32' E 009°54'0 0.0
2014-Dec-17 22:33N 53°32' E 009°54'0 0.0
2014-Dec-17 21:31N 53°32' E 009°54'0 0.0
2014-Dec-17 20:31N 53°32' E 009°54'0 0.0
2014-Dec-17 19:31N 53°32' E 009°54'0 0.0
2014-Dec-17 18:31N 53°32' E 009°54'0 0.0
2014-Dec-17 17:31N 53°32' E 009°54'0 0.0
2014-Dec-17 16:31N 53°32' E 009°54'0 0.0
2014-Dec-17 15:31N 53°32' E 009°54'0 0.0
2014-Dec-17 14:31N 53°32' E 009°54'0 0.0
2014-Dec-17 13:31N 53°32' E 009°54'0 0.0
2014-Dec-17 12:31N 53°32' E 009°54'0 0.0
2014-Dec-17 11:33N 53°32' E 009°54'0 0.0
2014-Dec-17 10:33N 53°32' E 009°54'0 0.0
2014-Dec-17 09:33N 53°32' E 009°54'0 0.0
2014-Dec-17 08:33N 53°32' E 009°54'0 0.0
2014-Dec-17 07:33N 53°32' E 009°54'0 0.0
2014-Dec-17 06:33N 53°32' E 009°54'1 0.7
2014-Dec-17 05:33N 53°32' E 009°53'9 8.6
2014-Dec-17 04:33N 53°34' E 009°39'1110.6
2014-Dec-17 03:33N 53°43' E 009°29'1211.9
2014-Dec-17 02:33N 53°52' E 009°16'8 7.5
2014-Dec-17 01:33N 53°52' E 009°03'1211.7
2014-Dec-17 00:33N 53°52' E 008°43'1111.2
2014-Dec-16 23:33N 53°59' E 008°28'1110.7
2014-Dec-16 22:33N 53°59' E 008°10'9 8.8
2014-Dec-16 21:33N 53°57' E 007°55'3 3.1
2014-Dec-16 20:25N 53°55' E 007°50'0 0.1
2014-Dec-16 19:22N 53°55' E 007°50'0 0.0
2014-Dec-16 18:31N 53°55' E 007°50'0 0.0
2014-Dec-16 17:22N 53°55' E 007°50'0 0.0
2014-Dec-16 16:25N 53°55' E 007°50'0 0.0
2014-Dec-16 15:13N 53°55' E 007°50'0 0.0
2014-Dec-16 14:31N 53°55' E 007°50'0 0.0
2014-Dec-16 13:31N 53°55' E 007°50'0 0.0
2014-Dec-16 12:31N 53°55' E 007°50'0 0.0
2014-Dec-16 11:31N 53°55' E 007°50'0 0.1
2014-Dec-16 10:31N 53°55' E 007°50'5 5.5
2014-Dec-16 09:33N 53°52' E 007°57'1616.4
2014-Dec-16 08:33N 53°42' E 008°19'1111.1
2014-Dec-16 07:34N 53°34' E 008°32'0 0.1
2014-Dec-16 06:31N 53°34' E 008°32'0 0.0
2014-Dec-16 04:33N 53°34' E 008°32'0 0.0
2014-Dec-16 03:32N 53°34' E 008°32'0 0.0
2014-Dec-16 02:11N 53°34' E 008°32'0 0.0
2014-Dec-16 01:05N 53°34' E 008°32'0 0.0
2014-Dec-16 00:07N 53°34' E 008°32'0 0.0
2014-Dec-15 23:19N 53°34' E 008°32'0 0.0
2014-Dec-15 22:31N 53°34' E 008°32'0 0.0
2014-Dec-15 21:31N 53°34' E 008°32'0 0.0
2014-Dec-15 20:31N 53°34' E 008°32'0 0.0
2014-Dec-15 19:31N 53°34' E 008°32'0 0.0
2014-Dec-15 18:31N 53°34' E 008°32'0 0.0
2014-Dec-15 17:31N 53°34' E 008°32'0 0.0
2014-Dec-15 16:31N 53°34' E 008°32'0 0.0
2014-Dec-15 15:28N 53°34' E 008°32'0 0.0
2014-Dec-15 14:31N 53°34' E 008°32'0 0.0
2014-Dec-15 13:31N 53°34' E 008°32'0 0.0
2014-Dec-15 12:31N 53°34' E 008°32'0 0.0
2014-Dec-15 11:31N 53°34' E 008°32'0 0.0
2014-Dec-15 10:31N 53°34' E 008°32'0 0.0
2014-Dec-15 09:31N 53°34' E 008°32'0 0.0
2014-Dec-15 08:33N 53°34' E 008°32'4 4.0
2014-Dec-15 07:33N 53°37' E 008°28'1010.3
2014-Dec-15 06:33N 53°44' E 008°15'1413.8
2014-Dec-15 05:33N 53°52' E 007°55'1211.8
2014-Dec-15 04:32N 53°55' E 007°36'4113.9
2014-Dec-15 01:33N 53°45' E 006°27'1414.1
2014-Dec-15 00:33N 53°42' E 006°05'1414.0
2014-Dec-14 23:33N 53°37' E 005°42'1414.2
2014-Dec-14 22:33N 53°33' E 005°20'1414.2
2014-Dec-14 21:34N 53°28' E 004°57'1413.8
2014-Dec-14 20:33N 53°19' E 004°39'1814.3
2014-Dec-14 19:20N 53°04' E 004°25'1114.5
2014-Dec-14 18:34N 52°54' E 004°16'1514.5
2014-Dec-14 17:33N 52°43' E 004°01'1313.0
2014-Dec-14 16:33N 52°33' E 003°47'7311.4
2014-Dec-14 10:10N 51°52' E 002°08'813.1
2014-Dec-14 09:34N 51°49' E 001°56'9 9.0
2014-Dec-14 08:34N 51°51' E 001°42'1312.6
2014-Dec-14 07:33N 51°42' E 001°28'1717.4
2014-Dec-14 06:33N 51°31' E 001°05'1615.9
2014-Dec-14 05:33N 51°30' E 000°40'1111.4
2014-Dec-14 04:33N 51°27' E 000°22'2 1.7
2014-Dec-14 03:33N 51°28' E 000°20'0 0.0
2014-Dec-14 02:34N 51°28' E 000°20'0 0.0
2014-Dec-14 01:34N 51°28' E 000°20'0 0.0
2014-Dec-14 00:34N 51°28' E 000°20'0 0.0
2014-Dec-13 23:34N 51°28' E 000°20'0 0.0
2014-Dec-13 22:34N 51°28' E 000°20'0 0.0
2014-Dec-13 21:34N 51°28' E 000°20'0 0.0
2014-Dec-13 20:34N 51°28' E 000°20'0 0.0
2014-Dec-13 19:34N 51°28' E 000°20'0 0.0
2014-Dec-13 18:34N 51°28' E 000°20'0 0.0
2014-Dec-13 17:34N 51°28' E 000°20'0 0.0
2014-Dec-13 16:34N 51°28' E 000°20'0 0.0
2014-Dec-13 15:34N 51°28' E 000°20'0 0.0
2014-Dec-13 14:34N 51°28' E 000°20'0 0.0
2014-Dec-13 13:34N 51°28' E 000°20'0 0.0
2014-Dec-13 12:34N 51°28' E 000°20'0 0.0
2014-Dec-13 11:34N 51°28' E 000°20'0 0.0
2014-Dec-13 10:34N 51°28' E 000°20'0 0.0
2014-Dec-13 09:34N 51°28' E 000°20'0 0.0
2014-Dec-13 08:34N 51°28' E 000°20'0 0.0
2014-Dec-13 07:34N 51°28' E 000°20'0 0.0
2014-Dec-13 06:34N 51°28' E 000°20'0 0.0
2014-Dec-13 05:34N 51°28' E 000°20'0 0.0
2014-Dec-13 04:34N 51°28' E 000°20'2 1.6
2014-Dec-13 03:34N 51°27' E 000°22'8 8.2
2014-Dec-13 02:34N 51°30' E 000°34'1211.9
2014-Dec-13 01:33N 51°29' E 000°54'1413.7
2014-Dec-13 00:34N 51°34' E 001°14'1313.1
2014-Dec-12 23:34N 51°44' E 001°29'1110.7
2014-Dec-12 22:33N 51°52' E 001°40'2 1.7
2014-Dec-12 21:32N 51°54' E 001°41'0 0.0
2014-Dec-12 20:32N 51°54' E 001°41'0 0.1
2014-Dec-12 19:32N 51°54' E 001°41'0 0.0
2014-Dec-12 18:32N 51°54' E 001°41'0 0.0
2014-Dec-12 17:32N 51°54' E 001°41'0 0.0
2014-Dec-12 16:32N 51°54' E 001°41'0 0.2
2014-Dec-12 15:32N 51°54' E 001°41'0 0.0
2014-Dec-12 14:32N 51°53' E 001°41'0 0.2
2014-Dec-12 13:32N 51°53' E 001°40'0 0.0
2014-Dec-12 12:32N 51°53' E 001°40'0 0.1
2014-Dec-12 11:32N 51°53' E 001°41'0 0.3
2014-Dec-12 10:32N 51°54' E 001°41'0 0.1
2014-Dec-12 09:32N 51°54' E 001°41'0 0.3
2014-Dec-12 08:33N 51°54' E 001°40'1 1.0
2014-Dec-12 07:33N 51°54' E 001°41'4 4.5
2014-Dec-12 06:33N 51°52' E 001°48'1616.0
2014-Dec-12 05:33N 51°36' E 001°49'1414.1
2014-Dec-12 04:33N 51°25' E 002°02'1313.1
2014-Dec-12 03:33N 51°21' E 002°22'1312.7
2014-Dec-12 02:33N 51°24' E 002°42'1111.0
2014-Dec-12 01:33N 51°25' E 002°59'1414.4
2014-Dec-12 00:33N 51°25' E 003°23'1010.3
2014-Dec-11 23:33N 51°26' E 003°39'1211.9
2014-Dec-11 22:33N 51°24' E 003°57'10 9.9
2014-Dec-11 21:33N 51°23' E 004°13'3 3.2
2014-Dec-11 20:34N 51°21' E 004°17'2 1.7
2014-Dec-11 19:34N 51°19' E 004°19'1 0.5
2014-Dec-11 18:31N 51°20' E 004°20'0 0.0
2014-Dec-11 17:28N 51°20' E 004°20'0 0.0
2014-Dec-11 16:24N 51°20' E 004°20'0 0.0
2014-Dec-11 15:28N 51°20' E 004°20'0 0.0
2014-Dec-11 14:30N 51°20' E 004°20'0 0.0
2014-Dec-11 13:24N 51°20' E 004°20'0 0.0
2014-Dec-11 12:30N 51°20' E 004°20'0 0.0
2014-Dec-11 11:16N 51°20' E 004°20'0 0.0
2014-Dec-11 10:33N 51°20' E 004°20'0 0.0
2014-Dec-11 09:29N 51°20' E 004°20'0 0.0
2014-Dec-11 08:32N 51°20' E 004°20'0 0.0
2014-Dec-11 07:31N 51°20' E 004°20'0 0.0
2014-Dec-11 06:31N 51°20' E 004°20'0 0.0
2014-Dec-11 05:33N 51°20' E 004°20'0 0.0
2014-Dec-11 04:19N 51°20' E 004°20'0 0.0
2014-Dec-11 03:28N 51°19' E 004°20'0 0.0
2014-Dec-11 02:21N 51°20' E 004°20'0 0.0
2014-Dec-11 01:33N 51°20' E 004°20'0 0.0
2014-Dec-11 00:33N 51°20' E 004°20'0 0.0
2014-Dec-10 23:33N 51°20' E 004°20'0 0.0
2014-Dec-10 22:30N 51°20' E 004°20'0 0.0
2014-Dec-10 21:33N 51°20' E 004°20'0 0.1
2014-Dec-10 20:33N 51°20' E 004°20'2 2.0
2014-Dec-10 19:34N 51°21' E 004°17'0 0.0
2014-Dec-10 18:34N 51°21' E 004°17'2 2.3
2014-Dec-10 17:33N 51°22' E 004°14'9 9.0
2014-Dec-10 16:33N 51°26' E 004°01'1111.5
2014-Dec-10 15:34N 51°23' E 003°43'1110.6
2014-Dec-10 14:33N 51°25' E 003°26'1716.8
2014-Dec-10 13:33N 51°26' E 002°59'9 8.9
2014-Dec-10 12:33N 51°33' E 003°07'1313.2
2014-Dec-10 11:33N 51°46' E 003°12'5 4.5
2014-Dec-10 10:33N 51°50' E 003°14'6 6.5
2014-Dec-10 09:33N 51°56' E 003°19'1514.7
2014-Dec-10 08:33N 52°03' E 003°41'7 7.2
2014-Dec-10 07:33N 52°02' E 003°52'2 1.9
2014-Dec-10 06:33N 52°02' E 003°55'7 7.3
2014-Dec-10 05:34N 51°58' E 004°05'1 0.7
2014-Dec-10 04:32N 51°58' E 004°04'0 0.0
2014-Dec-10 03:32N 51°58' E 004°04'0 0.1
2014-Dec-10 02:33N 51°58' E 004°04'0 0.0
2014-Dec-10 01:33N 51°58' E 004°04'0 0.0
2014-Dec-10 00:32N 51°58' E 004°04'0 0.0
2014-Dec-09 23:32N 51°58' E 004°04'0 0.0
2014-Dec-09 22:33N 51°58' E 004°04'0 0.0
2014-Dec-09 21:32N 51°58' E 004°04'0 0.0
2014-Dec-09 20:33N 51°58' E 004°04'0 0.0
2014-Dec-09 19:32N 51°58' E 004°04'0 0.0
2014-Dec-09 18:33N 51°58' E 004°04'0 0.0
2014-Dec-09 17:33N 51°58' E 004°04'0 0.0
2014-Dec-09 16:29N 51°58' E 004°04'0 0.0
2014-Dec-09 15:32N 51°58' E 004°04'0 0.0
2014-Dec-09 14:32N 51°58' E 004°04'0 0.0
2014-Dec-09 13:33N 51°58' E 004°04'0 0.0
2014-Dec-09 12:33N 51°58' E 004°04'5 4.8
2014-Dec-09 11:33N 51°60' E 003°57'1212.1
2014-Dec-09 10:33N 51°58' E 003°37'  
Track history (hours):
 
Tides and Currents Weather Stations Pressure Air Temp Water Temp Dewpoint Dewpoint Depression Visibility Wind Speed Wind Dir Waves Ship Positions

CSAV Brasilia

Last reported at 2014-Dec-19 09:33 UTC. Time now 2014-Dec-21 00:26 UTC.
Position N 50°33' E 000°09'.

Length 294 m; draft 12.3 m.

Type: Cargo ship. MMSI: 636092017.

Date/timePositionNaut miles runAvg speedWind from/ knotsBaromVisibWave heightAir tempDewpointWater temp
2014-Dec-19 09:33N 50°33' E 000°09'1413.9
2014-Dec-19 08:34N 50°37' E 000°30'1313.2
2014-Dec-19 07:34N 50°44' E 000°48'1313.2
2014-Dec-19 06:34N 50°52' E 001°04'1414.2
2014-Dec-19 05:33N 51°01' E 001°21'1515.5
2014-Dec-19 04:34N 51°11' E 001°41'1515.0
2014-Dec-19 03:33N 51°23' E 001°54'1514.5
2014-Dec-19 02:33N 51°35' E 002°09'1414.0
2014-Dec-19 01:33N 51°45' E 002°25'7113.5
2014-Dec-18 20:18N 52°41' E 003°35'1315.0
2014-Dec-18 19:26N 52°51' E 003°49'1315.2
2014-Dec-18 18:33N 53°00' E 004°05'1514.9
2014-Dec-18 17:33N 53°10' E 004°24'1514.5
2014-Dec-18 16:30N 53°24' E 004°34'1213.0
2014-Dec-18 15:33N 53°32' E 004°50'1413.9
2014-Dec-18 14:34N 53°36' E 005°12'1414.2
2014-Dec-18 13:33N 53°41' E 005°34'1515.0
2014-Dec-18 12:33N 53°46' E 005°58'5516.1
2014-Dec-18 09:08N 53°60' E 007°29'915.4
2014-Dec-18 08:33N 54°02' E 007°44'1515.2
2014-Dec-18 07:33N 54°00' E 008°09'1111.4
2014-Dec-18 06:33N 53°59' E 008°28'1212.3
2014-Dec-18 05:33N 53°51' E 008°45'1313.5
2014-Dec-18 04:33N 53°53' E 009°08'1313.4
2014-Dec-18 03:33N 53°44' E 009°26'1413.8
2014-Dec-18 02:33N 53°34' E 009°41'8 8.2
2014-Dec-18 01:33N 53°32' E 009°54'0 0.0
2014-Dec-18 00:33N 53°32' E 009°54'0 0.0
2014-Dec-17 23:33N 53°32' E 009°54'0 0.0
2014-Dec-17 22:33N 53°32' E 009°54'0 0.0
2014-Dec-17 21:31N 53°32' E 009°54'0 0.0
2014-Dec-17 20:31N 53°32' E 009°54'0 0.0
2014-Dec-17 19:31N 53°32' E 009°54'0 0.0
2014-Dec-17 18:31N 53°32' E 009°54'0 0.0
2014-Dec-17 17:31N 53°32' E 009°54'0 0.0
2014-Dec-17 16:31N 53°32' E 009°54'0 0.0
2014-Dec-17 15:31N 53°32' E 009°54'0 0.0
2014-Dec-17 14:31N 53°32' E 009°54'0 0.0
2014-Dec-17 13:31N 53°32' E 009°54'0 0.0
2014-Dec-17 12:31N 53°32' E 009°54'0 0.0
2014-Dec-17 11:33N 53°32' E 009°54'0 0.0
2014-Dec-17 10:33N 53°32' E 009°54'0 0.0
2014-Dec-17 09:33N 53°32' E 009°54'0 0.0
2014-Dec-17 08:33N 53°32' E 009°54'0 0.0
2014-Dec-17 07:33N 53°32' E 009°54'0 0.0
2014-Dec-17 06:33N 53°32' E 009°54'1 0.7
2014-Dec-17 05:33N 53°32' E 009°53'9 8.6
2014-Dec-17 04:33N 53°34' E 009°39'1110.6
2014-Dec-17 03:33N 53°43' E 009°29'1211.9
2014-Dec-17 02:33N 53°52' E 009°16'8 7.5
2014-Dec-17 01:33N 53°52' E 009°03'1211.7
2014-Dec-17 00:33N 53°52' E 008°43'1111.2
2014-Dec-16 23:33N 53°59' E 008°28'1110.7
2014-Dec-16 22:33N 53°59' E 008°10'9 8.8
2014-Dec-16 21:33N 53°57' E 007°55'3 3.1
2014-Dec-16 20:25N 53°55' E 007°50'0 0.1
2014-Dec-16 19:22N 53°55' E 007°50'0 0.0
2014-Dec-16 18:31N 53°55' E 007°50'0 0.0
2014-Dec-16 17:22N 53°55' E 007°50'0 0.0
2014-Dec-16 16:25N 53°55' E 007°50'0 0.0
2014-Dec-16 15:13N 53°55' E 007°50'0 0.0
2014-Dec-16 14:31N 53°55' E 007°50'0 0.0
2014-Dec-16 13:31N 53°55' E 007°50'0 0.0
2014-Dec-16 12:31N 53°55' E 007°50'0 0.0
2014-Dec-16 11:31N 53°55' E 007°50'0 0.1
2014-Dec-16 10:31N 53°55' E 007°50'5 5.5
2014-Dec-16 09:33N 53°52' E 007°57'1616.4
2014-Dec-16 08:33N 53°42' E 008°19'1111.1
2014-Dec-16 07:34N 53°34' E 008°32'0 0.1
2014-Dec-16 06:31N 53°34' E 008°32'0 0.0
2014-Dec-16 04:33N 53°34' E 008°32'0 0.0
2014-Dec-16 03:32N 53°34' E 008°32'0 0.0
2014-Dec-16 02:11N 53°34' E 008°32'0 0.0
2014-Dec-16 01:05N 53°34' E 008°32'0 0.0
2014-Dec-16 00:07N 53°34' E 008°32'0 0.0
2014-Dec-15 23:19N 53°34' E 008°32'0 0.0
2014-Dec-15 22:31N 53°34' E 008°32'0 0.0
2014-Dec-15 21:31N 53°34' E 008°32'0 0.0
2014-Dec-15 20:31N 53°34' E 008°32'0 0.0
2014-Dec-15 19:31N 53°34' E 008°32'0 0.0
2014-Dec-15 18:31N 53°34' E 008°32'0 0.0
2014-Dec-15 17:31N 53°34' E 008°32'0 0.0
2014-Dec-15 16:31N 53°34' E 008°32'0 0.0
2014-Dec-15 15:28N 53°34' E 008°32'0 0.0
2014-Dec-15 14:31N 53°34' E 008°32'0 0.0
2014-Dec-15 13:31N 53°34' E 008°32'0 0.0
2014-Dec-15 12:31N 53°34' E 008°32'0 0.0
2014-Dec-15 11:31N 53°34' E 008°32'0 0.0
2014-Dec-15 10:31N 53°34' E 008°32'0 0.0
2014-Dec-15 09:31N 53°34' E 008°32'0 0.0
2014-Dec-15 08:33N 53°34' E 008°32'4 4.0
2014-Dec-15 07:33N 53°37' E 008°28'1010.3
2014-Dec-15 06:33N 53°44' E 008°15'1413.8
2014-Dec-15 05:33N 53°52' E 007°55'1211.8
2014-Dec-15 04:32N 53°55' E 007°36'4113.9
2014-Dec-15 01:33N 53°45' E 006°27'1414.1
2014-Dec-15 00:33N 53°42' E 006°05'1414.0
2014-Dec-14 23:33N 53°37' E 005°42'1414.2
2014-Dec-14 22:33N 53°33' E 005°20'1414.2
2014-Dec-14 21:34N 53°28' E 004°57'1413.8
2014-Dec-14 20:33N 53°19' E 004°39'1814.3
2014-Dec-14 19:20N 53°04' E 004°25'1114.5
2014-Dec-14 18:34N 52°54' E 004°16'1514.5
2014-Dec-14 17:33N 52°43' E 004°01'1313.0
2014-Dec-14 16:33N 52°33' E 003°47'7311.4
2014-Dec-14 10:10N 51°52' E 002°08'813.1
2014-Dec-14 09:34N 51°49' E 001°56'9 9.0
2014-Dec-14 08:34N 51°51' E 001°42'1312.6
2014-Dec-14 07:33N 51°42' E 001°28'1717.4
2014-Dec-14 06:33N 51°31' E 001°05'1615.9
2014-Dec-14 05:33N 51°30' E 000°40'1111.4
2014-Dec-14 04:33N 51°27' E 000°22'2 1.7
2014-Dec-14 03:33N 51°28' E 000°20'0 0.0
2014-Dec-14 02:34N 51°28' E 000°20'0 0.0
2014-Dec-14 01:34N 51°28' E 000°20'0 0.0
2014-Dec-14 00:34N 51°28' E 000°20'0 0.0
2014-Dec-13 23:34N 51°28' E 000°20'0 0.0
2014-Dec-13 22:34N 51°28' E 000°20'0 0.0
2014-Dec-13 21:34N 51°28' E 000°20'0 0.0
2014-Dec-13 20:34N 51°28' E 000°20'0 0.0
2014-Dec-13 19:34N 51°28' E 000°20'0 0.0
2014-Dec-13 18:34N 51°28' E 000°20'0 0.0
2014-Dec-13 17:34N 51°28' E 000°20'0 0.0
2014-Dec-13 16:34N 51°28' E 000°20'0 0.0
2014-Dec-13 15:34N 51°28' E 000°20'0 0.0
2014-Dec-13 14:34N 51°28' E 000°20'0 0.0
2014-Dec-13 13:34N 51°28' E 000°20'0 0.0
2014-Dec-13 12:34N 51°28' E 000°20'0 0.0
2014-Dec-13 11:34N 51°28' E 000°20'0 0.0
2014-Dec-13 10:34N 51°28' E 000°20'0 0.0
2014-Dec-13 09:34N 51°28' E 000°20'0 0.0
2014-Dec-13 08:34N 51°28' E 000°20'0 0.0
2014-Dec-13 07:34N 51°28' E 000°20'0 0.0
2014-Dec-13 06:34N 51°28' E 000°20'0 0.0
2014-Dec-13 05:34N 51°28' E 000°20'0 0.0
2014-Dec-13 04:34N 51°28' E 000°20'2 1.6
2014-Dec-13 03:34N 51°27' E 000°22'8 8.2
2014-Dec-13 02:34N 51°30' E 000°34'1211.9
2014-Dec-13 01:33N 51°29' E 000°54'1413.7
2014-Dec-13 00:34N 51°34' E 001°14'1313.1
2014-Dec-12 23:34N 51°44' E 001°29'1110.7
2014-Dec-12 22:33N 51°52' E 001°40'2 1.7
2014-Dec-12 21:32N 51°54' E 001°41'0 0.0
2014-Dec-12 20:32N 51°54' E 001°41'0 0.1
2014-Dec-12 19:32N 51°54' E 001°41'0 0.0
2014-Dec-12 18:32N 51°54' E 001°41'0 0.0
2014-Dec-12 17:32N 51°54' E 001°41'0 0.0
2014-Dec-12 16:32N 51°54' E 001°41'0 0.2
2014-Dec-12 15:32N 51°54' E 001°41'0 0.0
2014-Dec-12 14:32N 51°53' E 001°41'0 0.2
2014-Dec-12 13:32N 51°53' E 001°40'0 0.0
2014-Dec-12 12:32N 51°53' E 001°40'0 0.1
2014-Dec-12 11:32N 51°53' E 001°41'0 0.3
2014-Dec-12 10:32N 51°54' E 001°41'0 0.1
2014-Dec-12 09:32N 51°54' E 001°41'0 0.3
2014-Dec-12 08:33N 51°54' E 001°40'1 1.0
2014-Dec-12 07:33N 51°54' E 001°41'4 4.5
2014-Dec-12 06:33N 51°52' E 001°48'1616.0
2014-Dec-12 05:33N 51°36' E 001°49'1414.1
2014-Dec-12 04:33N 51°25' E 002°02'1313.1
2014-Dec-12 03:33N 51°21' E 002°22'1312.7
2014-Dec-12 02:33N 51°24' E 002°42'1111.0
2014-Dec-12 01:33N 51°25' E 002°59'1414.4
2014-Dec-12 00:33N 51°25' E 003°23'1010.3
2014-Dec-11 23:33N 51°26' E 003°39'1211.9
2014-Dec-11 22:33N 51°24' E 003°57'10 9.9
2014-Dec-11 21:33N 51°23' E 004°13'3 3.2
2014-Dec-11 20:34N 51°21' E 004°17'2 1.7
2014-Dec-11 19:34N 51°19' E 004°19'1 0.5
2014-Dec-11 18:31N 51°20' E 004°20'0 0.0
2014-Dec-11 17:28N 51°20' E 004°20'0 0.0
2014-Dec-11 16:24N 51°20' E 004°20'0 0.0
2014-Dec-11 15:28N 51°20' E 004°20'0 0.0
2014-Dec-11 14:30N 51°20' E 004°20'0 0.0
2014-Dec-11 13:24N 51°20' E 004°20'0 0.0
2014-Dec-11 12:30N 51°20' E 004°20'0 0.0
2014-Dec-11 11:16N 51°20' E 004°20'0 0.0
2014-Dec-11 10:33N 51°20' E 004°20'0 0.0
2014-Dec-11 09:29N 51°20' E 004°20'0 0.0
2014-Dec-11 08:32N 51°20' E 004°20'0 0.0
2014-Dec-11 07:31N 51°20' E 004°20'0 0.0
2014-Dec-11 06:31N 51°20' E 004°20'0 0.0
2014-Dec-11 05:33N 51°20' E 004°20'0 0.0
2014-Dec-11 04:19N 51°20' E 004°20'0 0.0
2014-Dec-11 03:28N 51°19' E 004°20'0 0.0
2014-Dec-11 02:21N 51°20' E 004°20'0 0.0
2014-Dec-11 01:33N 51°20' E 004°20'0 0.0
2014-Dec-11 00:33N 51°20' E 004°20'0 0.0
2014-Dec-10 23:33N 51°20' E 004°20'0 0.0
2014-Dec-10 22:30N 51°20' E 004°20'0 0.0
2014-Dec-10 21:33N 51°20' E 004°20'0 0.1
2014-Dec-10 20:33N 51°20' E 004°20'2 2.0
2014-Dec-10 19:34N 51°21' E 004°17'0 0.0
2014-Dec-10 18:34N 51°21' E 004°17'2 2.3
2014-Dec-10 17:33N 51°22' E 004°14'9 9.0
2014-Dec-10 16:33N 51°26' E 004°01'1111.5
2014-Dec-10 15:34N 51°23' E 003°43'1110.6
2014-Dec-10 14:33N 51°25' E 003°26'1716.8
2014-Dec-10 13:33N 51°26' E 002°59'9 8.9
2014-Dec-10 12:33N 51°33' E 003°07'1313.2
2014-Dec-10 11:33N 51°46' E 003°12'5 4.5
2014-Dec-10 10:33N 51°50' E 003°14'6 6.5
2014-Dec-10 09:33N 51°56' E 003°19'1514.7
2014-Dec-10 08:33N 52°03' E 003°41'7 7.2
2014-Dec-10 07:33N 52°02' E 003°52'2 1.9
2014-Dec-10 06:33N 52°02' E 003°55'7 7.3
2014-Dec-10 05:34N 51°58' E 004°05'1 0.7
2014-Dec-10 04:32N 51°58' E 004°04'0 0.0
2014-Dec-10 03:32N 51°58' E 004°04'0 0.1
2014-Dec-10 02:33N 51°58' E 004°04'0 0.0
2014-Dec-10 01:33N 51°58' E 004°04'0 0.0
2014-Dec-10 00:32N 51°58' E 004°04'0 0.0
2014-Dec-09 23:32N 51°58' E 004°04'0 0.0
2014-Dec-09 22:33N 51°58' E 004°04'0 0.0
2014-Dec-09 21:32N 51°58' E 004°04'0 0.0
2014-Dec-09 20:33N 51°58' E 004°04'0 0.0
2014-Dec-09 19:32N 51°58' E 004°04'0 0.0
2014-Dec-09 18:33N 51°58' E 004°04'0 0.0
2014-Dec-09 17:33N 51°58' E 004°04'0 0.0
2014-Dec-09 16:29N 51°58' E 004°04'0 0.0
2014-Dec-09 15:32N 51°58' E 004°04'0 0.0
2014-Dec-09 14:32N 51°58' E 004°04'0 0.0
2014-Dec-09 13:33N 51°58' E 004°04'0 0.0
2014-Dec-09 12:33N 51°58' E 004°04'5 4.8
2014-Dec-09 11:33N 51°60' E 003°57'1212.1
2014-Dec-09 10:33N 51°58' E 003°37'  

Dump ship's entire track history